Starttijden en LIVE TIMING tijdrit Healthy Ageing Tour

Donderdag 11 maart 2021

Women - De tweede etappe van de Healthy Ageing Tour is een tijdrit over veertien kilometer op een militair terrein bij Lauwersoog. 

LIVE TIMING

16:01:00 146 10023732345 WOOTTON Kate Cams-Tifosi 

16:02:00 44 10014173300 WIEBES Lorena Team DSM

16:03:00 163 10014173502 VAN TEESELING Bente National Team Netherlands

16:04:00 166 10022726272 VAN ROOIJEN Eline National Team Netherlands

16:05:00 83 10022698485 GERRITSE Femke Parkhotel Valkenburg

16:06:00 141 10082705820 EDWARDS Emma Cams-Tifosi 

16:07:00 152 10010790121 RIFFEL Christa National Team Germany

16:08:00 73 10010169220 BRAUßE Franziska Ceratizit - WNT Pro Cycling Team

16:09:00 26 10009804155 TERUEL RIBES Alba Movistar Team Women

16:10:00 25 10008651168 OYARBIDE JIMENEZ Lourdes Movistar Team Women

16:11:00 126 10015762581 BAKS Marissa GT Krush Tunap Pro Cycling

16:12:00 93 10023335756 KNAVEN Britt NXTG Racing

16:13:00 113 10013943631 GULLIKSEN Line Marie Andy Schleck - CP NVST - Immo Losch

16:14:00 145 10018330657 TINDLEY Jo Cams-Tifosi 

16:15:00 62 10009637134 MATHIESEN Pernille Jumbo-Visma Women Team

16:16:00 144 10009326128 SIMMONDS Hayley Cams-Tifosi 

16:17:00 161 10022874095 JONKERS Eva National Team Netherlands

16:18:00 6 10004616574 CANUEL Karol-Ann Team SD Worx

16:19:00 16 10002059414 WORRACK Trixi Trek - Segafredo

16:20:00 35 10008954700 SHAPIRA Omer Canyon//SRAM Racing

16:21:00 104 10019657234 OLSEN Elise Marie Drops-Le Col supported by Tempur

16:22:00 54 10009902367 GUILMAN Victorie FDJ Nouvelle-Aquitaine Futuroscope

16:23:00 151 10007520110 KRÖGER Mieke National Team Germany

16:24:00 105 10023925335 TACEY April Drops-Le Col supported by Tempur

16:25:00 14 10022837521 VAN ANROOIJ Shirin Trek - Segafredo

16:26:00 56 10023490552 WIEL Jade FDJ Nouvelle-Aquitaine Futuroscope

16:27:00 156 10015335478 HECHLER Katharina National Team Germany

16:28:00 51 10010616834 CHAPMAN Brodie FDJ Nouvelle-Aquitaine Futuroscope

16:29:00 153 10036438537 REIßNER Lena Charlotte National Team Germany

16:30:00 84 10014185020 BUIJSMAN Nina Parkhotel Valkenburg

16:31:00 42 10015335074 GEORGI Pfeiffer Team DSM

16:32:00 82 10022708892 BOS Leonie Parkhotel Valkenburg

16:33:00 95 10022864500 RIJNBEEK Maud NXTG Racing

16:34:00 142 10018848090 FINNEY Jessica Cams-Tifosi 

16:35:00 55 10005971645 KITCHEN Lauren FDJ Nouvelle-Aquitaine Futuroscope

16:36:00 76 10016000536 TEUTENBERG Lea Lin Ceratizit - WNT Pro Cycling Team

16:37:00 22 10008601860 GONZALEZ BLANCO Alicia Movistar Team Women

16:38:00 36 10043842364 LUDWIG Hannah Canyon//SRAM Racing

16:39:00 45 10073127371 PEPERKAMP Esmée Team DSM

16:40:00 162 10015185938 STEIGENGA Nicole National Team Netherlands

16:41:00 116 10008701890 WEISS Sandra Andy Schleck - CP NVST - Immo Losch

16:42:00 24 10008651572 GUTIERREZ RUIZ Sheyla Movistar Team Women

16:43:00 85 10022772146 BREDEWOLD Mischa Parkhotel Valkenburg

16:44:00 75 10009639962 LACH Marta Ceratizit - WNT Pro Cycling Team

16:45:00 12 10007825456 HANSON Lauretta Trek - Segafredo

16:46:00 15 10003264335 VAN DIJK Ellen Trek - Segafredo

16:47:00 102 10006875866 MOBERG Emilie Drops-Le Col supported by Tempur

16:48:00 91 10015334872 BOSSUYT Shari NXTG Racing

16:49:00 164 10022814178 VAN ROOIJEN Sofie National Team Netherlands

16:50:00 1 10022750322 UNEKEN Lonneke Team SD Worx

16:51:00 43 10006456443 KIRCHMANN Leah Team DSM

16:52:00 4 10006578907 FOURNIER Roxane Team SD Worx

16:53:00 21 10005886365 GUARISCHI Barbara Movistar Team Women

16:54:00 2 10005669935 MAJERUS Christine Team SD Worx

16:55:00 74 10006324279 LETH Julie Ceratizit - WNT Pro Cycling Team

16:56:00 41 10011047573 ANDERSEN Susanne Team DSM

16:57:00 124 10013443069 VAN NECK Melissa GT Krush Tunap Pro Cycling 

16:58:00 34 10007709460 RYAN Alexis Canyon//SRAM Racing

16:59:00 165 10022721121 GRIT Ilse National Team Netherlands

17:00:00 111 10015529478 BURI Fabienne Andy Schleck - CP NVST - Immo Losch

17:01:00 11 10009487085 DIDERIKSEN Amalie Trek - Segafredo

17:02:00 96 10015509977 DE ZOETE Mylene NXTG Racing

17:03:00 46 10008648239 SOEK Julia Team DSM

17:04:00 33 10008965814 KLEIN Lisa Canyon//SRAM Racing

17:05:00 115 10015225243 SZABÓ Zsófia Andy Schleck - CP NVST - Immo Losch

17:06:00 65 10079063367 BEEKHUIS Teuntje Jumbo-Visma Women Team

17:07:00 94 10022792758 PLUIMERS Ilse NXTG Racing

17:08:00 71 10002919175 WILD Kirsten Ceratizit - WNT Pro Cycling Team

17:10:00 121 10023380115 TON Quinty GT Krush Tunap Pro Cycling

17:11:00 64 10004603137 KASPER Romy Jumbo-Visma Women Team

17:12:00 106 10022697475 VAN DER DUIN Maike Drops-Le Col supported by Tempur

17:13:00 53 10009877008 GROSSETETE Maëlle FDJ Nouvelle-Aquitaine Futuroscope

17:14:00 32 10045936958 CHABBEY Elise Canyon//SRAM Racing

17:15:00 13 10005781584 HOSKING Chloe Trek - Segafredo

17:16:00 122 10011048583 LUNDMARK Clara GT Krush Tunap Pro Cycling

17:17:00 52 10007742705 DUVAL Eugénie FDJ Nouvelle-Aquitaine Futuroscope

17:18:00 155 10008696234 STOCK Gudrun National Team Germany

17:19:00 86 10015509775 VAN DER HULST Amber Parkhotel Valkenburg

17:20:00 103 10009495371 VAN 'T GELOOF Maria Apolonia Drops-Le Col supported by Tempur

17:21:00 123 10023161560 HENGEVELD Daniek GT Krush Tunap Pro Cycling

17:22:00 112 10015780668 DANFORD Georgia Andy Schleck - CP NVST - Immo Losch

17:23:00 92 10015761268 KOOL Charlotte NXTG Racing

17:24:00 125 10083256696 EKLUND Nathalie GT Krush Tunap Pro Cycling

17:25:00 63 10023769024 HENDERSON Anna Jumbo-Visma Women Team

17:26:00 101 10018895580 LOWDEN Joscelin Drops-Le Col supported by Tempur

17:27:00 114 10009998357 METTRAUX Lena Andy Schleck - CP NVST - Immo Losch

17:28:00 23 10015197456 JØRGENSEN Emma Cecilie Movistar Team Women

17:29:00 5 10004779252 PIETERS Amy Team SD Worx

17:30:00 61 10009857103 SWINKELS Karlijn Jumbo-Visma Women Team

17:31:00 72 10004602935 BRENNAUER Lisa Ceratizit - WNT Pro Cycling Team

17:32:00 31 10008130503 BARNES Alice Canyon//SRAM Racing

17:33:00 3 10004779050 D'HOORE Jolien Team SD Worx

Foto: © Sportfoto

 


Eerder...

Women Nieuwsberichten

Powered by Manieu.nl